User: anonymous
Location: Plum
(40.5000°N, 79.7500°W)
Time: 13:12:02
(UTC-04:00)
Language:

Cosmos 1825 - Orbit

View from above orbital plane
View from above orbital plane
View from above satellite
View from above satellite

Ground track
Ground track

The orbit data is extracted from the following two-line orbital elements,

1 17566U 87024A   14211.17239288  .00001221  00000-0  68402-4 0   536
2 17566 082.5044 250.6898 0003290 255.9722 162.1042 15.12539792494258
Epoch (UTC): 30 July 2014 04:08:14
Eccentricity: 0.0003290
inclination: 82.5044°
perigee height: 526 km
apogee height: 531 km
right ascension of ascending node: 250.6898°
argument of perigee: 255.9722°
revolutions per day: 15.12539792
mean anomaly at epoch: 162.1042°
orbit number at epoch: 49425

The dashed part of the orbit path shows where the satellite is in the earth's shadow,  

DLR